Regional Weather Roundup
Issued by NWS Goodland, KS

Home | Current Version | Previous Version | Graphics & Text | Print | Product List | Glossary On
Versions: 1 2 3 4 5 6 7 8 9 10 11 12 13 14 15 16 17 18 19 20 21 22 23 24 25 26 27 28 29 30 31 32 33 34 35 36 37 38 39 40 41 42 43 44 45 46 47 48 49 50
000
ASUS43 KGLD 281108
RWRGLD

GOODLAND FORECAST AREA HOURLY WEATHER ROUNDUP
NATIONAL WEATHER SERVICE GOODLAND KS
500 AM MDT SUN MAY 28 2017

...OFFICIAL OBSERVATIONS...

CITY           SKY/WX    TMP DP  RH WIND       PRES   REMARKS
GOODLAND KS    CLEAR     47  43  86 W14       30.12S
HILL CITY KS   CLEAR     53  49  86 NW12      30.04S
IMPERIAL NEB   CLEAR     48  40  73 W13       30.09R
MCCOOK NEB     CLEAR     47  45  93 W10       30.06R
AKRON CO       CLEAR     42  39  89 W15       30.19S
BURLINGTON CO  CLEAR     46  41  82 W12       30.16S
LIMON CO       CLEAR     39  37  92 NW7       30.23S
$$

...UNOFFICIAL OBSERVATIONS...

CITY           SKY/WX    TMP DP  RH WIND       PRES   REMARKS
LENORA KS        N/A     50  32  50 MISG        N/A
NORTON KS      CLEAR     50  43  76 W9        30.03S
SHARON SPRINGS   N/A     46  43  90 W8          N/A
TRENTON NEB      N/A     48  32  54 NW8         N/A
$$



USA.gov is the U.S. government's official web portal to all federal, state and local government web resources and services.